TimeEDT,TemperatureF,Dew PointF,Humidity,Sea Level PressureIn,VisibilityMPH,Wind Direction,Wind SpeedMPH,Gust SpeedMPH,PrecipitationIn,Events,Conditions,WindDirDegrees,DateUTC
12:36 AM,71.6,69.8,94,29.88,4.0,NNE,3.5,-,0.00,,Overcast,20,2013-08-29 04:36:00
12:56 AM,72.0,70.0,93,29.87,4.0,Calm,Calm,-,0.00,,Overcast,0,2013-08-29 04:56:00
1:56 AM,71.1,69.1,93,29.89,4.0,NE,4.6,-,N/A,,Overcast,40,2013-08-29 05:56:00
2:56 AM,70.0,68.0,93,29.90,4.0,ENE,5.8,-,N/A,,Scattered Clouds,60,2013-08-29 06:56:00
3:12 AM,69.8,68.0,94,29.90,4.0,NE,3.5,-,N/A,,Mostly Cloudy,40,2013-08-29 07:12:00
3:56 AM,69.1,66.9,93,29.90,4.0,Calm,Calm,-,N/A,,Mostly Cloudy,0,2013-08-29 07:56:00
4:15 AM,69.8,66.2,88,29.91,4.0,Calm,Calm,-,N/A,,Mostly Cloudy,0,2013-08-29 08:15:00
4:32 AM,69.8,66.2,88,29.91,4.0,NNW,3.5,-,N/A,,Mostly Cloudy,330,2013-08-29 08:32:00
4:56 AM,70.0,68.0,93,29.92,4.0,Calm,Calm,-,N/A,,Overcast,0,2013-08-29 08:56:00
5:56 AM,70.0,66.9,90,29.94,6.0,NNE,3.5,-,N/A,,Overcast,30,2013-08-29 09:56:00
6:46 AM,69.8,66.2,88,29.96,3.0,ENE,4.6,-,N/A,,Overcast,70,2013-08-29 10:46:00
6:56 AM,70.0,66.9,90,29.96,3.0,Calm,Calm,-,N/A,,Overcast,0,2013-08-29 10:56:00
7:56 AM,70.0,66.9,90,29.98,3.0,North,4.6,-,N/A,,Overcast,350,2013-08-29 11:56:00
8:37 AM,71.6,66.2,83,29.99,3.0,North,3.5,-,N/A,,Overcast,360,2013-08-29 12:37:00
8:56 AM,72.0,68.0,87,29.99,4.0,NNW,6.9,-,N/A,,Overcast,340,2013-08-29 12:56:00
9:56 AM,73.0,66.9,81,30.01,4.0,Variable,4.6,-,N/A,,Haze,0,2013-08-29 13:56:00
10:56 AM,73.9,66.9,79,30.02,5.0,North,4.6,-,N/A,,Haze,360,2013-08-29 14:56:00
11:56 AM,73.9,66.9,79,30.02,5.0,Calm,Calm,-,N/A,,Haze,0,2013-08-29 15:56:00
12:56 PM,75.0,66.9,76,30.02,5.0,North,3.5,-,N/A,,Haze,360,2013-08-29 16:56:00
1:56 PM,75.9,66.9,74,30.02,5.0,Calm,Calm,-,N/A,,Haze,0,2013-08-29 17:56:00
2:45 PM,78.8,66.2,65,30.01,7.0,Calm,Calm,-,N/A,,Mostly Cloudy,0,2013-08-29 18:45:00
2:56 PM,79.0,69.1,72,30.00,6.0,SW,3.5,-,N/A,,Haze,220,2013-08-29 18:56:00
3:56 PM,81.0,68.0,65,30.00,9.0,Calm,Calm,-,N/A,,Scattered Clouds,0,2013-08-29 19:56:00
4:56 PM,81.0,68.0,65,29.99,10.0,SSE,3.5,-,N/A,,Partly Cloudy,160,2013-08-29 20:56:00
5:56 PM,81.0,66.9,62,29.99,10.0,SSE,3.5,-,N/A,,Partly Cloudy,160,2013-08-29 21:56:00
6:56 PM,79.0,69.1,72,29.99,10.0,Calm,Calm,-,N/A,,Partly Cloudy,0,2013-08-29 22:56:00
7:56 PM,75.0,70.0,84,29.99,8.0,Calm,Calm,-,N/A,,Scattered Clouds,0,2013-08-29 23:56:00
8:56 PM,77.0,66.9,71,30.00,10.0,Calm,Calm,-,N/A,,Mostly Cloudy,0,2013-08-30 00:56:00
9:56 PM,75.9,66.9,74,30.00,10.0,Calm,Calm,-,N/A,,Mostly Cloudy,0,2013-08-30 01:56:00
10:56 PM,73.0,68.0,84,30.00,9.0,SSE,4.6,-,N/A,,Partly Cloudy,150,2013-08-30 02:56:00
11:56 PM,73.0,66.9,81,30.01,10.0,Calm,Calm,-,N/A,,Scattered Clouds,0,2013-08-30 03:56:00